Flood From: 19-02-2018 10:30 Until: 20-02-2018 06:00 warning for: Flood Level: Yellow info button

Although rather usual in this region, locally or potentially dangerous phenomena are expected. (such as local winds, summer thunderstorms, rising streams or high waves) Be aware and pay attention to the latest weather updates, especially if you carry out activities exposed to weather or close to a stream or shoreline. 


Meteo18 Weather Cam more information Meteo18 Weather Cam


Thunder radar more information blitzortung!


Rain radar more information rain snow radar


Visit our other weather sites:

Template documentation
and downloads

And another site



Weather Underground History page Text

Daily Summary for November 17, 2017 Units:  Metric    English   Both
« Previous Day
Next Day »
Daily Weekly Monthly Yearly Custom
  High: Low: Average:
Temperature: -17.8 °C -16.7 °C -14.1 °C
Dew Point: -17.8 °C -16.9 °C -14.7 °C
Humidity: Humidity % 86 % 93 %
Wind Speed: 0 km/h 0 km/h 6.1 km/h
Wind Gust: 0 km/h - -
Wind:- - East
Pressure: 0 hPa 34740.4 hPa -
Precipitation: 0 mm    
Historical Graphs
 
 
Tabular Data for November 17, 2017
Time Temperature Dew Point Pressure Wind Wind Speed Wind Gust Humidity Rainfall Rate (Hourly)
-17.8 °C -17.8 °C 0 hPa Calm     Humidity % 0 mm
00:02 -16.5 °C -16.7 °C 34750.5 hPa Calm     97 % 0 mm
00:07 -16.5 °C -16.7 °C 34760.7 hPa Calm   2.6 km/h 97 % 0 mm
00:17 -16.5 °C -16.7 °C 34760.7 hPa Calm   2.6 km/h 97 % 0 mm
00:22 -16.4 °C -16.7 °C 34760.7 hPa Calm   2.6 km/h 97 % 0 mm
00:27 -16.4 °C -16.7 °C 34760.7 hPa ENE 2.6 km/h 5.1 km/h 97 % 0 mm
00:32 -16.4 °C -16.7 °C 34760.7 hPa Calm   5.1 km/h 97 % 0 mm
00:42 -16.4 °C -16.6 °C 34760.7 hPa ENE 5.1 km/h 5.1 km/h 97 % 0 mm
00:52 -16.3 °C -16.6 °C 34760.7 hPa NE 2.6 km/h 7.7 km/h 97 % 0 mm
00:57 -16.3 °C -16.6 °C 34760.7 hPa Calm   7.7 km/h 97 % 0 mm
01:02 -16.3 °C -16.6 °C 34760.7 hPa Calm   7.7 km/h 97 % 0 mm
01:12 -16.3 °C -16.4 °C 34760.7 hPa Calm   5.1 km/h 98 % 0 mm
01:22 -16.3 °C -16.4 °C 34760.7 hPa NE 2.6 km/h 7.7 km/h 98 % 0 mm
01:27 -16.3 °C -16.5 °C 34750.5 hPa Calm   7.7 km/h 97 % 0 mm
01:32 -16.3 °C -16.4 °C 34750.5 hPa NNE 2.6 km/h 7.7 km/h 98 % 0 mm
01:37 -16.3 °C -16.4 °C 34750.5 hPa NE 2.6 km/h 7.7 km/h 98 % 0 mm
01:42 -16.3 °C -16.4 °C 34750.5 hPa NNE 2.6 km/h 7.7 km/h 98 % 0 mm
01:52 -16.2 °C -16.4 °C 34750.5 hPa NE 2.6 km/h 7.7 km/h 98 % 0 mm
02:02 -16.2 °C -16.4 °C 34750.5 hPa Calm   7.7 km/h 98 % 0 mm
02:12 -16.2 °C -16.3 °C 34750.5 hPa Calm   5.1 km/h 98 % 0 mm
02:17 -16.2 °C -16.3 °C 34750.5 hPa NNE 2.6 km/h 5.1 km/h 98 % 0 mm
02:22 -16.4 °C -16.4 °C 34750.5 hPa Calm   10.3 km/h 100 % 0 mm
02:32 -16.4 °C -16.4 °C 34750.5 hPa Calm   10.3 km/h 100 % 0 mm
08:47 -16.6 °C -16.8 °C 34784.4 hPa Calm     97 % 0 mm
08:52 -16.7 °C -16.9 °C 34784.4 hPa Calm     97 % 0 mm
08:57 -16.7 °C -16.9 °C 34784.4 hPa Calm   2.6 km/h 97 % 0 mm
09:02 -16.7 °C -16.9 °C 34784.4 hPa Calm   2.6 km/h 97 % 0 mm
09:07 -16.6 °C -16.8 °C 34784.4 hPa Calm   2.6 km/h 97 % 0 mm
09:12 -16.6 °C -16.7 °C 34784.4 hPa Calm   2.6 km/h 98 % 0 mm
09:17 -16.6 °C -16.7 °C 34784.4 hPa Calm   2.6 km/h 98 % 0 mm
09:22 -16.5 °C -16.7 °C 34784.4 hPa Calm   2.6 km/h 98 % 0 mm
09:32 -16.4 °C -16.6 °C 34784.4 hPa Calm   2.6 km/h 98 % 0 mm
09:37 -16.2 °C -16.4 °C 34784.4 hPa Calm   2.6 km/h 98 % 0 mm
09:42 -16.3 °C -16.4 °C 34784.4 hPa Calm   2.6 km/h 98 % 0 mm
09:47 -16.2 °C -16.4 °C 34784.4 hPa Calm   2.6 km/h 98 % 0 mm
09:52 -16.2 °C -16.3 °C 34784.4 hPa Calm   2.6 km/h 98 % 0 mm
09:57 -16.1 °C -16.2 °C 34784.4 hPa Calm   2.6 km/h 98 % 0 mm
10:02 -16.1 °C -16.2 °C 34784.4 hPa ENE 2.6 km/h 2.6 km/h 98 % 0 mm
10:12 -15.9 °C -16.1 °C 34797.9 hPa NNE 2.6 km/h 5.1 km/h 98 % 0 mm
10:17 -15.9 °C -16.1 °C 34797.9 hPa ENE 2.6 km/h 5.1 km/h 98 % 0 mm
10:22 -15.8 °C -15.9 °C 34797.9 hPa NE 2.6 km/h 5.1 km/h 98 % 0 mm
10:27 -15.8 °C -15.9 °C 34797.9 hPa Calm   5.1 km/h 98 % 0 mm
10:32 -15.8 °C -15.9 °C 34797.9 hPa Calm   5.1 km/h 98 % 0 mm
10:37 -15.6 °C -15.8 °C 34784.4 hPa NE 2.6 km/h 5.1 km/h 98 % 0 mm
10:42 -15.5 °C -15.7 °C 34784.4 hPa Calm   5.1 km/h 98 % 0 mm
10:47 -15.3 °C -15.5 °C 34784.4 hPa Calm   5.1 km/h 98 % 0 mm
10:52 -15.3 °C -15.4 °C 34784.4 hPa Calm   5.1 km/h 98 % 0 mm
10:57 -15.2 °C -15.3 °C 34784.4 hPa Calm   5.1 km/h 98 % 0 mm
11:02 -15.1 °C -15.3 °C 34784.4 hPa NE 2.6 km/h 5.1 km/h 98 % 0 mm
11:07 -15.1 °C -15.2 °C 34797.9 hPa Calm   7.7 km/h 98 % 0 mm
11:12 -14.9 °C -15.1 °C 34797.9 hPa ENE 10.3 km/h 10.3 km/h 98 % 0 mm
11:17 -14.9 °C -15.1 °C 34797.9 hPa ENE 15.6 km/h 28.5 km/h 98 % 0 mm
11:22 -14.8 °C -15 °C 34784.4 hPa NE 15.6 km/h 28.5 km/h 98 % 0 mm
11:27 -14.8 °C -15 °C 34784.4 hPa NE 5.1 km/h 28.5 km/h 98 % 0 mm
11:32 -14.7 °C -14.9 °C 34784.4 hPa NNE 15.6 km/h 28.5 km/h 98 % 0 mm
11:42 -14.5 °C -14.7 °C 34784.4 hPa NNE 23.3 km/h 33.6 km/h 98 % 0 mm
11:47 -14.5 °C -14.7 °C 34784.4 hPa NE 31.1 km/h 36.2 km/h 97 % 0 mm
11:52 -14.5 °C -14.7 °C 34784.4 hPa NE 7.7 km/h 36.2 km/h 97 % 0 mm
11:57 -14.4 °C -14.6 °C 34774.2 hPa NE 23.3 km/h 38.8 km/h 97 % 0 mm
12:02 -14.3 °C -14.7 °C 34774.2 hPa NE 15.6 km/h 38.8 km/h 96 % 0 mm
12:07 -14.3 °C -14.6 °C 34774.2 hPa NE 2.6 km/h 33.6 km/h 96 % 0 mm
12:12 -14.1 °C -14.5 °C 34774.2 hPa North 18.2 km/h 33.6 km/h 95 % 0 mm
12:17 -14 °C -14.4 °C 34774.2 hPa NNE 20.8 km/h 33.6 km/h 95 % 0 mm
12:22 -14 °C -14.5 °C 34774.2 hPa NNE 20.8 km/h 33.6 km/h 94 % 0 mm
12:32 -13.8 °C -14.4 °C 34760.7 hPa WNW 12.9 km/h 33.6 km/h 93 % 0 mm
12:42 -13.8 °C -14.4 °C 34760.7 hPa NNE 5.1 km/h 33.6 km/h 93 % 0 mm
12:47 -13.8 °C -14.4 °C 34760.7 hPa NE 12.9 km/h 28.5 km/h 92 % 0 mm
12:52 -13.8 °C -14.4 °C 34760.7 hPa NNE 15.6 km/h 28.5 km/h 92 % 0 mm
13:02 -13.7 °C -14.3 °C 34760.7 hPa NE 2.6 km/h 18.2 km/h 92 % 0 mm
13:12 -13.4 °C -14.1 °C 34774.2 hPa NE 7.7 km/h 18.2 km/h 92 % 0 mm
13:17 -13.4 °C -14.2 °C 34760.7 hPa NE 10.3 km/h 15.6 km/h 91 % 0 mm
13:27 -13.2 °C -14 °C 34760.7 hPa NNE 7.7 km/h 18.2 km/h 91 % 0 mm
13:32 -13.2 °C -14 °C 34760.7 hPa East 7.7 km/h 18.2 km/h 90 % 0 mm
13:42 -13.1 °C -13.9 °C 34760.7 hPa NE 7.7 km/h 23.3 km/h 90 % 0 mm
13:52 -12.8 °C -13.8 °C 34760.7 hPa NE 18.2 km/h 23.3 km/h 89 % 0 mm
13:57 -12.7 °C -13.7 °C 34750.5 hPa ENE 5.1 km/h 23.3 km/h 89 % 0 mm
14:02 -12.7 °C -13.7 °C 34750.5 hPa NE 2.6 km/h 23.3 km/h 89 % 0 mm
14:12 -12.7 °C -13.6 °C 34750.5 hPa East 10.3 km/h 25.9 km/h 89 % 0 mm
14:17 -12.7 °C -13.7 °C 34750.5 hPa ENE 2.6 km/h 25.9 km/h 88 % 0 mm
14:22 -12.7 °C -13.7 °C 34750.5 hPa East 5.1 km/h 25.9 km/h 88 % 0 mm
14:32 -12.6 °C -13.7 °C 34750.5 hPa NE 10.3 km/h 15.6 km/h 88 % 0 mm
14:37 -12.6 °C -13.7 °C 34750.5 hPa North 7.7 km/h 18.2 km/h 88 % 0 mm
14:42 -12.6 °C -13.7 °C 34750.5 hPa ENE 7.7 km/h 20.8 km/h 88 % 0 mm
14:52 -12.6 °C -13.6 °C 34740.4 hPa NE 10.3 km/h 15.6 km/h 88 % 0 mm
14:57 -12.6 °C -13.6 °C 34740.4 hPa ENE 2.6 km/h 18.2 km/h 88 % 0 mm
15:02 -12.6 °C -13.6 °C 34740.4 hPa NE 12.9 km/h 18.2 km/h 88 % 0 mm
15:07 -12.6 °C -13.6 °C 34740.4 hPa NE 12.9 km/h 18.2 km/h 88 % 0 mm
15:12 -12.6 °C -13.6 °C 34740.4 hPa NE 7.7 km/h 18.2 km/h 88 % 0 mm
15:17 -12.6 °C -13.6 °C 34740.4 hPa NE 7.7 km/h 18.2 km/h 88 % 0 mm
15:22 -12.4 °C -13.5 °C 34740.4 hPa NNE 7.7 km/h 15.6 km/h 88 % 0 mm
15:27 -12.3 °C -13.4 °C 34740.4 hPa North 7.7 km/h 12.9 km/h 88 % 0 mm
15:32 -12.2 °C -13.3 °C 34740.4 hPa NE 10.3 km/h 15.6 km/h 88 % 0 mm
15:37 -12.1 °C -13.3 °C 34740.4 hPa NE 5.1 km/h 18.2 km/h 87 % 0 mm
15:42 -12.1 °C -13.3 °C 34740.4 hPa ENE 5.1 km/h 18.2 km/h 87 % 0 mm
15:47 -12.2 °C -13.4 °C 34740.4 hPa NE 5.1 km/h 18.2 km/h 86 % 0 mm
15:52 -12.2 °C -13.4 °C 34740.4 hPa North 5.1 km/h 15.6 km/h 87 % 0 mm
15:57 -12.3 °C -13.4 °C 34740.4 hPa NE 7.7 km/h 15.6 km/h 87 % 0 mm
16:02 -12.3 °C -13.5 °C 34740.4 hPa NE 5.1 km/h 15.6 km/h 87 % 0 mm
16:12 -12.2 °C -13.4 °C 34740.4 hPa NE 5.1 km/h 15.6 km/h 87 % 0 mm
16:17 -12.2 °C -13.3 °C 34740.4 hPa NE 10.3 km/h 15.6 km/h 87 % 0 mm
16:22 -12.2 °C -13.4 °C 34740.4 hPa NNE 7.7 km/h 15.6 km/h 87 % 0 mm
16:32 -12.3 °C -13.5 °C 34740.4 hPa NNE 5.1 km/h 15.6 km/h 87 % 0 mm
16:37 -12.3 °C -13.5 °C 34740.4 hPa NE 10.3 km/h 18.2 km/h 87 % 0 mm
16:42 -12.4 °C -13.4 °C 34740.4 hPa NE 12.9 km/h 18.2 km/h 88 % 0 mm
16:47 -12.4 °C -13.4 °C 34740.4 hPa NE 5.1 km/h 23.3 km/h 88 % 0 mm
16:52 -12.4 °C -13.5 °C 34740.4 hPa NE 15.6 km/h 23.3 km/h 88 % 0 mm
16:57 -12.4 °C -13.5 °C 34740.4 hPa NE 12.9 km/h 23.3 km/h 88 % 0 mm
17:02 -12.5 °C -13.6 °C 34740.4 hPa NNW 12.9 km/h 18.2 km/h 88 % 0 mm
17:07 -12.6 °C -13.5 °C 34740.4 hPa NNE 7.7 km/h 23.3 km/h 89 % 0 mm
17:12 -12.6 °C -13.6 °C 34740.4 hPa NNE 12.9 km/h 23.3 km/h 89 % 0 mm
17:22 -12.7 °C -13.7 °C 34740.4 hPa NNW 12.9 km/h 23.3 km/h 89 % 0 mm
17:27 -12.8 °C -13.7 °C 34750.5 hPa NW 5.1 km/h 20.8 km/h 90 % 0 mm
17:32 -12.8 °C -13.7 °C 34750.5 hPa NNE 7.7 km/h 20.8 km/h 90 % 0 mm
17:37 -12.8 °C -13.7 °C 34750.5 hPa NE 12.9 km/h 23.3 km/h 90 % 0 mm
17:42 -12.9 °C -13.8 °C 34750.5 hPa East 10.3 km/h 23.3 km/h 90 % 0 mm
17:52 -12.9 °C -13.7 °C 34750.5 hPa NNE 7.7 km/h 23.3 km/h 91 % 0 mm
17:57 -12.9 °C -13.7 °C 34740.4 hPa NNE 10.3 km/h 20.8 km/h 91 % 0 mm
18:12 -13 °C -13.7 °C 34740.4 hPa NW 5.1 km/h 18.2 km/h 92 % 0 mm
18:17 -13 °C -13.7 °C 34740.4 hPa NW 2.6 km/h 18.2 km/h 92 % 0 mm
18:22 -13 °C -13.7 °C 34740.4 hPa Calm   20.8 km/h 92 % 0 mm
18:32 -13.1 °C -13.8 °C 34740.4 hPa NNW 5.1 km/h 18.2 km/h 92 % 0 mm
18:37 -13.1 °C -13.8 °C 34740.4 hPa NNE 7.7 km/h 12.9 km/h 92 % 0 mm
18:42 -13.1 °C -13.8 °C 34750.5 hPa ENE 2.6 km/h 12.9 km/h 92 % 0 mm
18:47 -13.1 °C -13.8 °C 34750.5 hPa ENE 2.6 km/h 18.2 km/h 92 % 0 mm
18:52 -13.1 °C -13.8 °C 34750.5 hPa NNW 7.7 km/h 18.2 km/h 92 % 0 mm
18:57 -13.2 °C -13.8 °C 34750.5 hPa NNE 5.1 km/h 15.6 km/h 92 % 0 mm
19:02 -13.2 °C -13.9 °C 34750.5 hPa ENE 7.7 km/h 23.3 km/h 91 % 0 mm
19:12 -13.2 °C -13.9 °C 34750.5 hPa NNE 7.7 km/h 31.1 km/h 91 % 0 mm
19:17 -13.2 °C -13.9 °C 34750.5 hPa NNW 10.3 km/h 31.1 km/h 91 % 0 mm
19:22 -13.2 °C -13.8 °C 34750.5 hPa North 2.6 km/h 20.8 km/h 92 % 0 mm
19:32 -13.2 °C -13.9 °C 34750.5 hPa NNE 7.7 km/h 20.8 km/h 92 % 0 mm
19:37 -13.2 °C -13.9 °C 34750.5 hPa North 2.6 km/h 18.2 km/h 92 % 0 mm
19:42 -13.2 °C -13.9 °C 34760.7 hPa NE 18.2 km/h 18.2 km/h 92 % 0 mm
19:47 -13.2 °C -13.9 °C 34760.7 hPa North 2.6 km/h 18.2 km/h 92 % 0 mm
19:57 -13.3 °C -13.9 °C 34760.7 hPa NE 7.7 km/h 18.2 km/h 92 % 0 mm
20:02 -13.3 °C -13.9 °C 34760.7 hPa NE 5.1 km/h 12.9 km/h 92 % 0 mm
20:12 -13.3 °C -14 °C 34760.7 hPa NE 5.1 km/h 12.9 km/h 92 % 0 mm
20:17 -13.3 °C -14 °C 34760.7 hPa NE 5.1 km/h 15.6 km/h 92 % 0 mm
20:22 -13.4 °C -14.1 °C 34760.7 hPa North 10.3 km/h 18.2 km/h 92 % 0 mm
20:32 -13.4 °C -14.1 °C 34760.7 hPa NNE 7.7 km/h 18.2 km/h 92 % 0 mm
20:42 -13.4 °C -14 °C 34760.7 hPa NE 5.1 km/h 15.6 km/h 93 % 0 mm
20:47 -13.4 °C -14 °C 34760.7 hPa NNE 10.3 km/h 12.9 km/h 93 % 0 mm
20:52 -13.4 °C -14 °C 34760.7 hPa NNW 7.7 km/h 20.8 km/h 93 % 0 mm
20:57 -13.4 °C -14 °C 34760.7 hPa North 2.6 km/h 20.8 km/h 93 % 0 mm
21:02 -13.4 °C -14.1 °C 34760.7 hPa North 15.6 km/h 20.8 km/h 93 % 0 mm
21:12 -13.4 °C -14.1 °C 34760.7 hPa NNE 7.7 km/h 28.5 km/h 93 % 0 mm
21:17 -13.4 °C -14.1 °C 34760.7 hPa NNE 2.6 km/h 28.5 km/h 93 % 0 mm
21:22 -13.4 °C -14.1 °C 34760.7 hPa NNE 7.7 km/h 28.5 km/h 93 % 0 mm
21:27 -13.4 °C -14.1 °C 34760.7 hPa NNW 5.1 km/h 18.2 km/h 93 % 0 mm
21:32 -13.5 °C -14 °C 34760.7 hPa North 2.6 km/h 15.6 km/h 94 % 0 mm
21:37 -13.5 °C -14 °C 34760.7 hPa Calm   18.2 km/h 94 % 0 mm
21:42 -13.5 °C -14 °C 34760.7 hPa NNE 5.1 km/h 18.2 km/h 94 % 0 mm
21:47 -13.5 °C -14 °C 34760.7 hPa North 5.1 km/h 18.2 km/h 94 % 0 mm
21:52 -13.5 °C -14 °C 34760.7 hPa Calm   12.9 km/h 94 % 0 mm
21:57 -13.6 °C -14.1 °C 34760.7 hPa North 2.6 km/h 12.9 km/h 94 % 0 mm
22:02 -13.6 °C -14.1 °C 34760.7 hPa Calm   18.2 km/h 94 % 0 mm
22:12 -13.6 °C -14.1 °C 34760.7 hPa NNE 18.2 km/h 18.2 km/h 94 % 0 mm
22:22 -13.6 °C -13.9 °C 34760.7 hPa Calm   20.8 km/h 95 % 0 mm
22:27 -13.6 °C -14 °C 34760.7 hPa NNW 2.6 km/h 20.8 km/h 95 % 0 mm
22:37 -13.6 °C -14 °C 34760.7 hPa NNW 2.6 km/h 18.2 km/h 95 % 0 mm
22:42 -13.6 °C -14 °C 34774.2 hPa NW 7.7 km/h 18.2 km/h 95 % 0 mm
22:47 -13.7 °C -14.1 °C 34774.2 hPa North 10.3 km/h 15.6 km/h 95 % 0 mm
22:52 -13.7 °C -14.1 °C 34774.2 hPa NNW 7.7 km/h 20.8 km/h 95 % 0 mm
22:57 -13.7 °C -14.1 °C 34760.7 hPa North 5.1 km/h 20.8 km/h 95 % 0 mm
23:02 -13.7 °C -14.1 °C 34760.7 hPa NNE 10.3 km/h 20.8 km/h 95 % 0 mm
23:07 -13.7 °C -14.1 °C 34760.7 hPa NNE 5.1 km/h 20.8 km/h 95 % 0 mm
23:12 -13.7 °C -14.1 °C 34774.2 hPa NE 2.6 km/h 18.2 km/h 95 % 0 mm
23:22 -13.8 °C -14.3 °C 34760.7 hPa NE 5.1 km/h 15.6 km/h 94 % 0 mm
23:32 -13.8 °C -14.3 °C 34760.7 hPa NNE 2.6 km/h 18.2 km/h 94 % 0 mm
23:37 -13.8 °C -14.3 °C 34760.7 hPa NNW 5.1 km/h 18.2 km/h 94 % 0 mm
23:42 -13.8 °C -14.3 °C 34760.7 hPa NNW 5.1 km/h 18.2 km/h 94 % 0 mm
23:47 -13.8 °C -14.3 °C 34760.7 hPa NE 10.3 km/h 18.2 km/h 94 % 0 mm
23:52 -13.8 °C -14.3 °C 34760.7 hPa NNE 12.9 km/h 15.6 km/h 94 % 0 mm
Meteo18
Compliments of Weather Underground - 4 mb

Script developed by  Jim McMurry - jmcmurry@mwt.net Adapted for the template by  Wim van der Kuil - Leuven-Template.eu

You find our weather info also at:

European Weather Network

Weather Underground

Equipment we use:

Weather-station
Davis Vue

Weather-program
Meteobridge

Weather-server
Raspberry PI 2 B+

Provider
1 and 1

Davis Vue

Meteobridge

Raspberry PI 2 B+

1 and 1